Le nostre stazioni meteo in Italia

Pubblicità
Il mio iltempo24.it
Catania/Sigonella, Italia (16459): Temperatura & dewpoint: 14.01.2018 06:00:00 - 20.01.2018 06:00:00 (CET)Catania/Sigonella, Italia (16459): velocità del vento: 14.01.2018 06:00:00 - 20.01.2018 06:00:00 (CET)Catania/Sigonella, Italia (16459): direzione del vento: 14.01.2018 06:00:00 - 20.01.2018 06:00:00 (CET)Catania/Sigonella, Italia (16459): reduced air pressure: 14.01.2018 06:00:00 - 20.01.2018 06:00:00 (CET)Catania/Sigonella, Italia (16459): visibility: 14.01.2018 06:00:00 - 20.01.2018 06:00:00 (CET)
Data & Tempo tt [°C] td [°C] ff [km/h] ff [kn] dd ppp [hPa] vv [km]
20.01.2018 06:00:00 - - - - - - -
20.01.2018 05:00:00 6,0 6,0 5 3 O - 10
20.01.2018 04:00:00 7,2 7,2 11 6 NO 1015,6 10
20.01.2018 03:00:00 8,0 8,0 5 3 O - 10
20.01.2018 02:00:00 8,0 8,0 8 4 OSO - 10
20.01.2018 01:00:00 8,4 8,4 13 7 O 1016,6 10
20.01.2018 00:00:00 9,0 9,0 9 5 ONO - 10
19.01.2018 23:00:00 9,0 9,0 4 2 SO - 10
19.01.2018 22:00:00 9,0 9,0 2 1 ONO 1016,8 10
19.01.2018 21:00:00 10,0 9,0 11 6 O - 10
19.01.2018 20:00:00 10,0 7,0 15 8 O - 10
19.01.2018 19:00:00 10,8 6,7 21 11 OSO 1016,6 15
19.01.2018 18:00:00 11,0 6,0 22 12 OSO - 10
19.01.2018 17:00:00 12,0 6,0 28 15 OSO - 10
19.01.2018 16:00:00 14,6 6,2 29 16 OSO 1016,6 15
19.01.2018 15:00:00 15,0 6,0 31 17 SO - 10
19.01.2018 14:00:00 16,0 7,0 29 16 SO - 10
19.01.2018 13:00:00 16,2 6,6 29 16 OSO 1017,6 12
19.01.2018 12:00:00 16,0 7,0 28 15 OSO - 10
19.01.2018 11:00:00 15,0 8,0 26 14 OSO - 10
19.01.2018 10:00:00 9,2 5,4 9 5 NO 1020,2 15
19.01.2018 09:00:00 6,0 4,0 15 8 ONO - 10
19.01.2018 08:00:00 4,0 3,0 9 5 ONO - 10
19.01.2018 07:00:00 1,6 1,6 11 6 O 1020,7 10
19.01.2018 06:00:00 2,0 2,0 4 2 SE - 10
19.01.2018 05:00:00 4,0 3,0 5 3 ENE - 10
19.01.2018 04:00:00 4,6 3,2 11 6 NNO 1020,8 10
19.01.2018 03:00:00 4,0 4,0 11 6 NO - 10
19.01.2018 02:00:00 4,0 4,0 9 5 NO - 10
19.01.2018 01:00:00 4,2 4,2 9 5 O 1022,1 10
19.01.2018 00:00:00 5,0 5,0 5 3 NO - 10
18.01.2018 23:00:00 6,0 6,0 13 7 O - 10
18.01.2018 22:00:00 6,2 6,2 8 4 O 1022,8 10
18.01.2018 21:00:00 9,0 6,0 11 6 ONO - 10
18.01.2018 20:00:00 8,0 5,0 15 8 O - 10
18.01.2018 19:00:00 8,0 4,0 9 5 SO 1023,2 10
18.01.2018 18:00:00 11,0 3,0 8 4 ONO - 10
18.01.2018 17:00:00 14,0 1,0 4 2 N - 10
18.01.2018 16:00:00 15,4 0,0 22 12 E 1022,7 10
18.01.2018 15:00:00 18,0 -2,0 16 9 ENE - 10
18.01.2018 14:00:00 17,0 -4,0 11 6 NO - 10
18.01.2018 13:00:00 16,6 -4,6 18 10 ONO 1022,8 10
18.01.2018 12:00:00 16,0 -5,0 15 8 O - 10
18.01.2018 11:00:00 15,0 -4,0 16 9 OSO - 10
18.01.2018 10:00:00 13,8 -4,4 15 8 OSO 1022,5 10
18.01.2018 09:00:00 12,0 -6,0 15 8 ONO - 10
18.01.2018 08:00:00 11,0 -5,0 24 13 ONO - 10
18.01.2018 07:00:00 10,0 -2,3 13 7 NO 1020,3 12
18.01.2018 06:00:00 10,0 2,0 28 15 O - 10
18.01.2018 05:00:00 10,0 1,0 16 9 O - 10
18.01.2018 04:00:00 10,4 1,5 34 18 O 1017,5 10
18.01.2018 03:00:00 10,0 1,0 26 14 O - 10
18.01.2018 02:00:00 11,0 1,0 31 17 O - 10
18.01.2018 01:00:00 11,0 2,1 31 17 ONO 1015,6 10
18.01.2018 00:00:00 12,0 2,0 42 23 O - 10
17.01.2018 23:00:00 12,0 3,0 46 25 ONO - 10
17.01.2018 22:00:00 12,0 5,0 31 17 O 1013,4 10
17.01.2018 21:00:00 13,0 7,0 35 19 E - 10
17.01.2018 20:00:00 14,0 8,0 39 21 O - 10
17.01.2018 19:00:00 12,6 8,7 24 13 OSO 1011,5 10
17.01.2018 18:00:00 15,0 8,0 29 16 O - 10
17.01.2018 17:00:00 16,0 9,0 34 18 O - 10
17.01.2018 16:00:00 17,4 6,6 41 22 O 1010,3 10
17.01.2018 15:00:00 18,0 8,0 46 25 O - 10
17.01.2018 14:00:00 18,0 8,0 41 22 O - 10
17.01.2018 13:00:00 16,2 7,9 37 20 O 1012,3 10
17.01.2018 12:00:00 15,0 9,0 29 16 O - 10
17.01.2018 11:00:00 15,0 11,0 35 19 OSO - 8
17.01.2018 10:00:00 14,4 9,8 39 21 O 1014,8 8
17.01.2018 09:00:00 13,0 11,0 31 17 O - 10
17.01.2018 08:00:00 12,0 10,0 35 19 OSO - 10
17.01.2018 07:00:00 11,2 10,3 29 16 O 1015,8 16
17.01.2018 06:00:00 11,0 11,0 18 10 O - 10
17.01.2018 05:00:00 10,0 10,0 16 9 OSO - 10
17.01.2018 04:00:00 10,6 8,9 34 18 OSO 1017,9 15
17.01.2018 03:00:00 10,0 9,0 26 14 OSO - 10
17.01.2018 02:00:00 11,0 9,0 28 15 O - 10
17.01.2018 01:00:00 10,8 8,9 26 14 O 1018,9 15
17.01.2018 00:00:00 11,0 8,0 28 15 O - 10
16.01.2018 23:00:00 10,0 8,0 22 12 OSO - 10
16.01.2018 22:00:00 10,2 8,0 24 13 O 1020,6 15
16.01.2018 21:00:00 11,0 8,0 22 12 OSO - 10
16.01.2018 20:00:00 11,0 10,0 24 13 OSO - 10
16.01.2018 19:00:00 11,2 9,6 22 12 OSO 1020,8 10
16.01.2018 18:00:00 12,0 8,0 18 10 OSO - 10
16.01.2018 17:00:00 15,0 4,0 18 10 O - 10
16.01.2018 16:00:00 15,0 0,8 39 21 O 1020,7 10
16.01.2018 15:00:00 15,0 1,0 46 25 O - 10
16.01.2018 14:00:00 17,0 3,0 42 23 O - 10
16.01.2018 13:00:00 16,6 3,3 41 22 O 1022,2 10
16.01.2018 12:00:00 16,0 6,0 35 19 O - 10
16.01.2018 11:00:00 14,0 8,0 29 16 O - 10
16.01.2018 10:00:00 11,4 7,9 21 11 O 1024,8 12
16.01.2018 09:00:00 8,0 7,0 18 10 O - 10
16.01.2018 08:00:00 5,0 5,0 11 6 ONO - 10
16.01.2018 07:00:00 5,0 5,0 15 8 O 1024,7 15
16.01.2018 06:00:00 7,0 7,0 15 8 ONO - 10
16.01.2018 05:00:00 6,0 6,0 16 9 O - 10
16.01.2018 04:00:00 6,6 6,6 8 4 NO 1025,3 15
16.01.2018 03:00:00 6,0 6,0 11 6 NO - 10
16.01.2018 02:00:00 7,0 7,0 9 5 NNO - 10
16.01.2018 01:00:00 8,0 8,0 13 7 NO 1025,4 15
16.01.2018 00:00:00 7,0 7,0 11 6 ONO - 10
15.01.2018 23:00:00 8,0 8,0 13 7 OSO - 10
15.01.2018 22:00:00 9,2 9,2 16 9 O 1025,4 15
15.01.2018 21:00:00 9,0 9,0 16 9 O - 10
15.01.2018 20:00:00 8,0 8,0 9 5 OSO - 10
15.01.2018 19:00:00 9,8 9,8 2 1 SO 1023,8 15
15.01.2018 18:00:00 10,0 10,0 9 5 OSO - 10
15.01.2018 17:00:00 12,0 10,0 15 8 OSO - 10
15.01.2018 16:00:00 14,2 8,4 11 6 OSO 1023,4 16
15.01.2018 15:00:00 15,0 6,0 15 8 O - 10
15.01.2018 14:00:00 15,0 8,0 15 8 O - 10
15.01.2018 13:00:00 14,4 8,6 11 6 ONO 1024,5 18
15.01.2018 12:00:00 12,0 9,0 11 6 O - 10
15.01.2018 11:00:00 11,0 10,0 11 6 OSO - 10
15.01.2018 10:00:00 9,8 9,8 11 6 ONO 1024,7 13
15.01.2018 09:00:00 7,0 7,0 8 4 ONO - 10
15.01.2018 08:00:00 5,0 5,0 5 3 OSO - 10
15.01.2018 07:00:00 4,4 4,4 8 4 O 1024,2 10
15.01.2018 06:00:00 4,0 4,0 8 4 O - 10
15.01.2018 05:00:00 4,0 4,0 8 4 O - 10
15.01.2018 04:00:00 3,4 3,4 8 4 NNE 1024,5 10
15.01.2018 03:00:00 4,0 4,0 8 4 O - 10
15.01.2018 02:00:00 4,0 4,0 8 4 OSO - 10
15.01.2018 01:00:00 4,0 4,0 11 6 O 1024,8 10
15.01.2018 00:00:00 5,0 5,0 9 5 OSO - 10
14.01.2018 23:00:00 5,0 5,0 8 4 O - 10
14.01.2018 22:00:00 6,4 6,4 11 6 ONO 1024,4 10
14.01.2018 21:00:00 7,0 7,0 9 5 OSO - 10
14.01.2018 20:00:00 7,0 7,0 8 4 SO - 10
14.01.2018 19:00:00 7,8 7,8 13 7 SO 1023,3 12
14.01.2018 18:00:00 11,0 6,0 9 5 OSO - 10
14.01.2018 17:00:00 13,0 5,0 13 7 OSO - 10
14.01.2018 16:00:00 13,2 4,1 13 7 OSO 1022,3 12
14.01.2018 15:00:00 16,0 4,0 16 9 OSO - 10
14.01.2018 14:00:00 17,0 3,0 18 10 OSO - 10
14.01.2018 13:00:00 16,6 3,0 13 7 O 1022,5 12
14.01.2018 12:00:00 16,0 3,0 15 8 O - 10
14.01.2018 11:00:00 13,0 6,0 11 6 ONO - 10
14.01.2018 10:00:00 11,4 6,5 13 7 O 1022,7 12
14.01.2018 09:00:00 8,0 7,0 11 6 ONO - 10
14.01.2018 08:00:00 4,0 4,0 9 5 OSO - 10
14.01.2018 07:00:00 4,2 4,2 13 7 ONO 1021,7 10
14.01.2018 06:00:00 5,0 5,0 5 3 O - 10

tt = Temperatura
td = dewpoint
ff = velocità del vento
dd = direzione del vento
ppp = reduced air pressure
vv = visibility

Stazioni seguenti

WeatherPro
AMSI
MeteoEarth